Location: Arbon
(43.0005°N, 0.7472°E)
Time: 02:15:58
(UTC+00:00)

Cosmos 2285 Rocket - Pass Details

Date: 07 August 2020
Orbit: 970 x 999 km, 74.0° (Epoch: 27 September)

Event Time Altitude Azimuth Distance (km) Brightness Sun altitude
Exits shadow 03:38:40 - 190° (S) 3,068 6.2 -12.8°
Reaches altitude 10° 03:39:37 10° 189° (S) 2,715 5.9 -12.7°
Maximum altitude 03:45:52 70° 106° (ESE) 1,030 4.3 -11.7°
Drops below altitude 10° 03:52:07 10° 25° (NNE) 2,722 7.3 -10.8°
Sets 03:54:40 0° 23° (NNE) 3,673 8.1 -10.4°
